Voltar ao catálogo

STARLINK-35409

AtivoComunicaçõesVLEO
NORAD 66196·PAYLOAD·🇺🇸 United States

Lançado Oct 26, 2025 de Cape Canaveral Space Force Station

Loading…

Próximas Passagens (próximas 24 horas)

TLE

AtualizadoSource: CelesTrak SupGP

Época: Sep 14, 2026, 23:15 UTC

1 66196C 25243V   26257.96923611  .00031352  00000+0  92654-3 0  2572
2 66196  53.1595  85.3160 0001291  88.1294 285.2080 15.34366972    18

Acompanhe STARLINK-35409 em tempo real com AllMySat

Download on the App Store